Location: Enikep?du
(16.5133°N, 80.7066°E)
Time: 03:27:52
(UTC+00:00)

Cosmos 44 - Pass Details

Date: 20 January 2020
Orbit: 595 x 767 km, 65.1° (Epoch: 18 February)

Event Time Altitude Azimuth Distance (km) Brightness Sun altitude
Exits shadow 00:04:10 20° 324° (NW) 1,448 4.5 -15.6°
Maximum altitude 00:07:10 62° 248° (WSW) 720 3.1 -14.9°
Drops below altitude 10° 00:11:48 10° 168° (SSE) 2,078 6.2 -13.9°
Sets 00:14:11 0° 164° (SSE) 3,020 7.1 -13.3°
